| time (UTC) | temp F | wind direction | speed MPH | gust MPH | rain 1hr in | rain 24hr in | rain mn in | humidity % | barometer mb |
| 20260504034549 | 55 | 198 | 3.0 | 7.0 | 0.00 | 0.00 | 0.00 | 37 | 1016.6 |
| 20260504034045 | 56 | 178 | 3.0 | 9.0 | 0.00 | 0.00 | 0.00 | 37 | 1016.6 |
| 20260504033543 | 56 | 186 | 4.0 | 9.0 | 0.00 | 0.00 | 0.00 | 37 | 1016.7 |
| 20260504033053 | 56 | 189 | 4.0 | 8.0 | 0.00 | 0.00 | 0.00 | 36 | 1016.6 |
| 20260504032543 | 56 | 182 | 3.0 | 8.0 | 0.00 | 0.00 | 0.00 | 36 | 1016.6 |
| 20260504032043 | 57 | 197 | 4.0 | 8.0 | 0.00 | 0.00 | 0.00 | 35 | 1016.5 |
| 20260504031558 | 57 | 202 | 3.0 | 8.0 | 0.00 | 0.00 | 0.00 | 35 | 1016.5 |
| 20260504031045 | 57 | 211 | 4.0 | 9.0 | 0.00 | 0.00 | 0.00 | 34 | 1016.4 |
| 20260504030543 | 57 | 203 | 3.0 | 11.0 | 0.00 | 0.00 | 0.00 | 33 | 1016.3 |
| 20260504030050 | 57 | 238 | 4.0 | 11.0 | 0.00 | 0.00 | 0.00 | 33 | 1016.3 |
| 20260504025542 | 58 | 161 | 4.0 | 8.0 | 0.00 | 0.00 | 0.00 | 32 | 1016.4 |
| 20260504025045 | 58 | 241 | 4.0 | 8.0 | 0.00 | 0.00 | 0.00 | 31 | 1016.2 |
| 20260504024558 | 58 | 188 | 3.0 | 8.0 | 0.00 | 0.00 | 0.00 | 30 | 1016.2 |
| 20260504024042 | 59 | 206 | 4.0 | 8.0 | 0.00 | 0.00 | 0.00 | 30 | 1016.1 |
| 20260504023545 | 59 | 174 | 3.0 | 9.0 | 0.00 | 0.00 | 0.00 | 29 | 1016.1 |
| 20260504023045 | 59 | 177 | 5.0 | 10.0 | 0.00 | 0.00 | 0.00 | 29 | 1016.0 |
| 20260504022542 | 59 | 168 | 5.0 | 10.0 | 0.00 | 0.00 | 0.00 | 29 | 1015.9 |
| 20260504022043 | 60 | 186 | 5.0 | 10.0 | 0.00 | 0.00 | 0.00 | 28 | 1015.8 |
| 20260504021553 | 60 | 194 | 6.0 | 10.0 | 0.00 | 0.00 | 0.00 | 28 | 1015.7 |
| 20260504021042 | 61 | 200 | 4.0 | 9.0 | 0.00 | 0.00 | 0.00 | 28 | 1015.6 |
| 20260504020542 | 61 | 202 | 5.0 | 9.0 | 0.00 | 0.00 | 0.00 | 27 | 1015.7 |
| 20260504020050 | 62 | 188 | 4.0 | 8.0 | 0.00 | 0.00 | 0.00 | 26 | 1015.5 |
| 20260504015543 | 62 | 199 | 4.0 | 10.0 | 0.00 | 0.00 | 0.00 | 26 | 1015.4 |
| 20260504015043 | 63 | 200 | 6.0 | 10.0 | 0.00 | 0.00 | 0.00 | 26 | 1015.4 |
| 20260504014549 | 63 | 195 | 5.0 | 10.0 | 0.00 | 0.00 | 0.00 | 26 | 1015.4 |
| 20260504014042 | 64 | 205 | 5.0 | 10.0 | 0.00 | 0.00 | 0.00 | 26 | 1015.3 |
| 20260504013542 | 64 | 170 | 5.0 | 12.0 | 0.00 | 0.00 | 0.00 | 25 | 1015.3 |
| 20260504013058 | 64 | 240 | 6.0 | 12.0 | 0.00 | 0.00 | 0.00 | 25 | 1015.3 |
| 20260504012544 | 65 | 191 | 7.0 | 15.0 | 0.00 | 0.00 | 0.00 | 25 | 1015.3 |
| 20260504012044 | 65 | 200 | 6.0 | 15.0 | 0.00 | 0.00 | 0.00 | 25 | 1015.3 |
| 20260504011552 | 65 | 202 | 8.0 | 15.0 | 0.00 | 0.00 | 0.00 | 24 | 1015.4 |
| 20260504011042 | 66 | 230 | 6.0 | 15.0 | 0.00 | 0.00 | 0.00 | 24 | 1015.5 |
| 20260504010541 | 66 | 202 | 7.0 | 17.0 | 0.00 | 0.00 | 0.00 | 24 | 1015.5 |
| 20260504010055 | 67 | 249 | 8.0 | 17.0 | 0.00 | 0.00 | 0.00 | 24 | 1015.7 |
| 20260504005540 | 67 | 196 | 8.0 | 14.0 | 0.00 | 0.00 | 0.00 | 23 | 1015.7 |
| 20260504005043 | 68 | 200 | 5.0 | 14.0 | 0.00 | 0.00 | 0.00 | 23 | 1015.7 |
| 20260504004603 | 68 | 234 | 7.0 | 14.0 | 0.00 | 0.00 | 0.00 | 22 | 1015.7 |
| 20260504004043 | 69 | 220 | 5.0 | 10.0 | 0.00 | 0.00 | 0.00 | 22 | 1015.7 |
| 20260504003544 | 69 | 188 | 5.0 | 10.0 | 0.00 | 0.00 | 0.00 | 22 | 1015.8 |
| 20260504003054 | 69 | 198 | 4.0 | 10.0 | 0.00 | 0.00 | 0.00 | 22 | 1015.8 |
| 20260504002542 | 69 | 225 | 4.0 | 9.0 | 0.00 | 0.00 | 0.00 | 22 | 1015.9 |
| 20260504002045 | 69 | 172 | 4.0 | 14.0 | 0.00 | 0.00 | 0.00 | 22 | 1015.8 |
| 20260504001557 | 69 | 176 | 6.0 | 16.0 | 0.00 | 0.00 | 0.00 | 22 | 1016.0 |
| 20260504001043 | 69 | 196 | 6.0 | 19.0 | 0.00 | 0.00 | 0.00 | 22 | 1016.0 |
| 20260504000543 | 70 | 170 | 7.0 | 19.0 | 0.00 | 0.00 | 0.00 | 21 | 1016.0 |
| 20260504000053 | 70 | 140 | 7.0 | 17.0 | 0.00 | 0.00 | 0.00 | 21 | 1016.1 |
| 20260503235543 | 70 | 205 | 6.0 | 17.0 | 0.00 | 0.00 | 0.00 | 21 | 1016.1 |
| 20260503235046 | 70 | 210 | 6.0 | 17.0 | 0.00 | 0.00 | 0.00 | 21 | 1016.2 |
| 20260503234550 | 71 | 182 | 6.0 | 16.0 | 0.00 | 0.00 | 0.00 | 21 | 1016.0 |
| 20260503234043 | 71 | 224 | 6.0 | 17.0 | 0.00 | 0.00 | 0.00 | 21 | 1016.2 |
| 20260503233542 | 71 | 267 | 8.0 | 17.0 | 0.00 | 0.00 | 0.00 | 20 | 1016.2 |
| 20260503233050 | 72 | 226 | 6.0 | 14.0 | 0.00 | 0.00 | 0.00 | 20 | 1016.3 |
| 20260503232542 | 72 | 191 | 5.0 | 14.0 | 0.00 | 0.00 | 0.00 | 20 | 1016.3 |
| 20260503232042 | 72 | 232 | 5.0 | 14.0 | 0.00 | 0.00 | 0.00 | 20 | 1016.4 |
| 20260503231555 | 71 | 0 | 3.0 | 13.0 | 0.00 | 0.00 | 0.00 | 20 | 1016.4 |
| 20260503231043 | 71 | 192 | 8.0 | 17.0 | 0.00 | 0.00 | 0.00 | 21 | 1016.5 |
| 20260503230543 | 71 | 275 | 7.0 | 17.0 | 0.00 | 0.00 | 0.00 | 21 | 1016.5 |
| 20260503230051 | 72 | 243 | 5.0 | 15.0 | 0.00 | 0.00 | 0.00 | 21 | 1016.6 |
| 20260503225542 | 71 | 215 | 6.0 | 13.0 | 0.00 | 0.00 | 0.00 | 21 | 1016.7 |
| 20260503225042 | 71 | 223 | 5.0 | 13.0 | 0.00 | 0.00 | 0.00 | 22 | 1016.7 |
| 20260503224549 | 70 | 263 | 5.0 | 17.0 | 0.00 | 0.00 | 0.00 | 23 | 1016.8 |
| 20260503224043 | 69 | 261 | 7.0 | 17.0 | 0.00 | 0.00 | 0.00 | 23 | 1016.8 |
| 20260503223542 | 69 | 300 | 9.0 | 17.0 | 0.00 | 0.00 | 0.00 | 23 | 1016.9 |
| 20260503223044 | 69 | 250 | 5.0 | 15.0 | 0.00 | 0.00 | 0.00 | 22 | 1017.0 |
| 20260503222541 | 71 | 246 | 8.0 | 15.0 | 0.00 | 0.00 | 0.00 | 21 | 1017.0 |
| 20260503222047 | 72 | 254 | 8.0 | 15.0 | 0.00 | 0.00 | 0.00 | 20 | 1017.1 |
| 20260503221556 | 72 | 215 | 8.0 | 15.0 | 0.00 | 0.00 | 0.00 | 20 | 1017.2 |
| 20260503221045 | 72 | 252 | 7.0 | 15.0 | 0.00 | 0.00 | 0.00 | 20 | 1017.2 |
| 20260503220543 | 72 | 180 | 7.0 | 14.0 | 0.00 | 0.00 | 0.00 | 19 | 1017.4 |
| 20260503220051 | 72 | 285 | 3.0 | 16.0 | 0.00 | 0.00 | 0.00 | 19 | 1017.3 |
| 20260503215542 | 72 | 244 | 7.0 | 16.0 | 0.00 | 0.00 | 0.00 | 19 | 1017.5 |
| 20260503215043 | 74 | 279 | 8.0 | 16.0 | 0.00 | 0.00 | 0.00 | 18 | 1017.4 |
| 20260503214551 | 74 | 147 | 7.0 | 16.0 | 0.00 | 0.00 | 0.00 | 18 | 1017.5 |
| 20260503214042 | 74 | 315 | 10.0 | 16.0 | 0.00 | 0.00 | 0.00 | 18 | 1017.5 |
| 20260503213542 | 74 | 267 | 4.0 | 16.0 | 0.00 | 0.00 | 0.00 | 18 | 1017.7 |
| 20260503213054 | 74 | 132 | 5.0 | 15.0 | 0.00 | 0.00 | 0.00 | 18 | 1017.7 |
| 20260503212542 | 74 | 183 | 6.0 | 15.0 | 0.00 | 0.00 | 0.00 | 18 | 1017.8 |
| 20260503212043 | 74 | 293 | 4.0 | 11.0 | 0.00 | 0.00 | 0.00 | 19 | 1017.8 |
| 20260503211553 | 73 | 244 | 4.0 | 18.0 | 0.00 | 0.00 | 0.00 | 19 | 1018.0 |
| 20260503211044 | 74 | 271 | 8.0 | 18.0 | 0.00 | 0.00 | 0.00 | 18 | 1018.1 |
| 20260503210543 | 75 | 250 | 4.0 | 16.0 | 0.00 | 0.00 | 0.00 | 17 | 1018.3 |
| 20260503210047 | 74 | 209 | 4.0 | 16.0 | 0.00 | 0.00 | 0.00 | 19 | 1018.4 |
| 20260503205543 | 74 | 227 | 6.0 | 16.0 | 0.00 | 0.00 | 0.00 | 19 | 1018.6 |
| 20260503205044 | 74 | 226 | 5.0 | 14.0 | 0.00 | 0.00 | 0.00 | 20 | 1018.5 |
| 20260503204550 | 73 | 178 | 8.0 | 14.0 | 0.00 | 0.00 | 0.00 | 20 | 1018.6 |
| 20260503204043 | 72 | 96 | 4.0 | 13.0 | 0.00 | 0.00 | 0.00 | 21 | 1018.6 |
| 20260503203542 | 72 | 229 | 4.0 | 18.0 | 0.00 | 0.00 | 0.00 | 21 | 1018.9 |
| 20260503203049 | 71 | 289 | 8.0 | 18.0 | 0.00 | 0.00 | 0.00 | 21 | 1018.9 |
| 20260503202542 | 72 | 275 | 11.0 | 18.0 | 0.00 | 0.00 | 0.00 | 20 | 1018.9 |
| 20260503202042 | 72 | 272 | 7.0 | 17.0 | 0.00 | 0.00 | 0.00 | 20 | 1019.0 |
| 20260503201551 | 72 | 273 | 9.0 | 17.0 | 0.00 | 0.00 | 0.00 | 20 | 1018.9 |
| 20260503201042 | 73 | 265 | 5.0 | 12.0 | 0.00 | 0.00 | 0.00 | 19 | 1019.2 |
| 20260503200545 | 73 | 263 | 4.0 | 13.0 | 0.00 | 0.00 | 0.00 | 19 | 1019.2 |
| 20260503200048 | 72 | 214 | 6.0 | 19.0 | 0.00 | 0.00 | 0.00 | 20 | 1019.3 |
| 20260503195542 | 72 | 206 | 9.0 | 19.0 | 0.00 | 0.00 | 0.00 | 20 | 1019.4 |
| 20260503195043 | 72 | 263 | 6.0 | 15.0 | 0.00 | 0.00 | 0.00 | 20 | 1019.5 |
| 20260503194553 | 72 | 219 | 6.0 | 14.0 | 0.00 | 0.00 | 0.00 | 20 | 1019.6 |
| 20260503194043 | 71 | 294 | 5.0 | 15.0 | 0.00 | 0.00 | 0.00 | 21 | 1019.7 |
| 20260503193543 | 71 | 182 | 5.0 | 15.0 | 0.00 | 0.00 | 0.00 | 21 | 1019.8 |
| 20260503193056 | 70 | 244 | 5.0 | 14.0 | 0.00 | 0.00 | 0.00 | 21 | 1019.8 |
| 20260503192542 | 70 | 300 | 4.0 | 14.0 | 0.00 | 0.00 | 0.00 | 22 | 1019.8 |
| 20260503192043 | 72 | 338 | 8.0 | 14.0 | 0.00 | 0.00 | 0.00 | 21 | 1019.9 |
| 20260503191550 | 74 | 300 | 6.0 | 11.0 | 0.00 | 0.00 | 0.00 | 20 | 1020.0 |
| 20260503191043 | 75 | 225 | 2.0 | 7.0 | 0.00 | 0.00 | 0.00 | 19 | 1020.1 |
| 20260503190543 | 75 | 96 | 3.0 | 11.0 | 0.00 | 0.00 | 0.00 | 20 | 1020.1 |
| 20260503190051 | 74 | 143 | 5.0 | 11.0 | 0.00 | 0.00 | 0.00 | 21 | 1020.2 |
| 20260503185542 | 73 | 165 | 5.0 | 11.0 | 0.00 | 0.00 | 0.00 | 21 | 1020.3 |
| 20260503185043 | 72 | 128 | 2.0 | 9.0 | 0.00 | 0.00 | 0.00 | 20 | 1020.4 |
| 20260503184603 | 70 | 207 | 2.0 | 9.0 | 0.00 | 0.00 | 0.00 | 21 | 1020.6 |
| 20260503184044 | 69 | 94 | 2.0 | 8.0 | 0.00 | 0.00 | 0.00 | 21 | 1020.7 |
| 20260503183541 | 69 | 315 | 3.0 | 12.0 | 0.00 | 0.00 | 0.00 | 21 | 1020.7 |
| 20260503183051 | 69 | 313 | 3.0 | 12.0 | 0.00 | 0.00 | 0.00 | 21 | 1021.0 |
| 20260503182548 | 69 | 300 | 5.0 | 12.0 | 0.00 | 0.00 | 0.00 | 21 | 1021.1 |
| 20260503182046 | 70 | 13 | 3.0 | 8.0 | 0.00 | 0.00 | 0.00 | 18 | 1021.1 |
| 20260503181552 | 70 | 303 | 2.0 | 9.0 | 0.00 | 0.00 | 0.00 | 21 | 1021.3 |
| 20260503181043 | 69 | 197 | 3.0 | 9.0 | 0.00 | 0.00 | 0.00 | 20 | 1021.4 |
| 20260503180544 | 69 | 232 | 2.0 | 7.0 | 0.00 | 0.00 | 0.00 | 21 | 1021.4 |
| 20260503180054 | 68 | 261 | 3.0 | 9.0 | 0.00 | 0.00 | 0.00 | 25 | 1021.5 |
| 20260503175543 | 67 | 259 | 3.0 | 9.0 | 0.00 | 0.00 | 0.00 | 25 | 1021.5 |
| 20260503175042 | 67 | 278 | 5.0 | 9.0 | 0.00 | 0.00 | 0.00 | 26 | 1021.5 |
| 20260503174604 | 66 | 164 | 1.0 | 8.0 | 0.00 | 0.00 | 0.00 | 28 | 1021.5 |
| 20260503174042 | 64 | 120 | 2.0 | 8.0 | 0.00 | 0.00 | 0.00 | 28 | 1021.7 |
| 20260503173542 | 63 | 311 | 2.0 | 12.0 | 0.00 | 0.00 | 0.00 | 28 | 1021.7 |
| 20260503173046 | 63 | 59 | 5.0 | 12.0 | 0.00 | 0.00 | 0.00 | 28 | 1021.9 |
| 20260503172541 | 64 | 323 | 6.0 | 10.0 | 0.00 | 0.00 | 0.00 | 30 | 1021.9 |
| 20260503172041 | 64 | 339 | 2.0 | 9.0 | 0.00 | 0.00 | 0.00 | 31 | 1021.8 |
| 20260503171546 | 64 | 243 | 3.0 | 9.0 | 0.00 | 0.00 | 0.00 | 31 | 1021.9 |
| 20260503171042 | 63 | 315 | 5.0 | 13.0 | 0.00 | 0.00 | 0.00 | 29 | 1022.0 |
| 20260503170542 | 62 | 329 | 5.0 | 13.0 | 0.00 | 0.00 | 0.00 | 29 | 1022.0 |
| 20260503150542 | 54 | 9 | 2.0 | 6.0 | 0.00 | 0.00 | 0.00 | 50 | 1022.9 |
| 20260503131045 | 40 | 93 | 0.0 | 3.0 | 0.00 | 0.00 | 0.00 | 85 | 1023.3 |
| 20260503130542 | 39 | 0 | 0.0 | 3.0 | 0.00 | 0.00 | 0.00 | 85 | 1023.2 |
| 20260503110542 | 38 | 101 | 1.0 | 3.0 | 0.00 | 0.00 | 0.00 | 80 | 1022.7 |
| 20260503100110 | 39 | 101 | 3.0 | 6.0 | 0.00 | 0.00 | 0.00 | 76 | 1022.9 |
| 20260503081552 | 41 | 101 | 0.0 | 2.0 | 0.00 | 0.00 | 0.00 | 70 | 1023.3 |
| 20260503081041 | 41 | 101 | 0.0 | 2.0 | 0.00 | 0.00 | 0.00 | 70 | 1023.3 |
| 20260503080542 | 42 | 0 | 0.0 | 3.0 | 0.00 | 0.00 | 0.00 | 70 | 1023.4 |
| 20260503072542 | 43 | 0 | 1.0 | 7.0 | 0.00 | 0.00 | 0.00 | 68 | 1023.7 |
| 20260503072046 | 43 | 0 | 1.0 | 7.0 | 0.00 | 0.00 | 0.00 | 68 | 1023.7 |
| 20260503071552 | 43 | 146 | 2.0 | 5.0 | 0.00 | 0.00 | 0.00 | 68 | 1023.7 |
| 20260503071041 | 44 | 117 | 1.0 | 5.0 | 0.00 | 0.00 | 0.00 | 68 | 1023.6 |
| 20260503070541 | 44 | 120 | 1.0 | 7.0 | 0.00 | 0.00 | 0.00 | 68 | 1023.6 |
| 20260503055041 | 46 | 128 | 4.0 | 10.0 | 0.00 | 0.00 | 0.00 | 65 | 1023.5 |
| 20260503054545 | 46 | 148 | 6.0 | 10.0 | 0.00 | 0.00 | 0.00 | 65 | 1023.7 |
| 20260503054041 | 46 | 103 | 4.0 | 10.0 | 0.00 | 0.00 | 0.00 | 64 | 1023.7 |
| 20260503053541 | 46 | 132 | 3.0 | 12.0 | 0.00 | 0.00 | 0.00 | 64 | 1023.7 |
| 20260503053055 | 46 | 142 | 7.0 | 12.0 | 0.00 | 0.00 | 0.00 | 64 | 1023.6 |
| 20260503052542 | 47 | 123 | 5.0 | 11.0 | 0.00 | 0.00 | 0.00 | 64 | 1023.6 |
| 20260503052042 | 47 | 146 | 7.0 | 11.0 | 0.00 | 0.00 | 0.00 | 64 | 1023.5 |
| 20260503051552 | 47 | 143 | 6.0 | 12.0 | 0.00 | 0.00 | 0.00 | 63 | 1023.6 |
| 20260503051042 | 47 | 132 | 6.0 | 12.0 | 0.00 | 0.00 | 0.00 | 63 | 1023.5 |
| 20260503050542 | 47 | 144 | 6.0 | 13.0 | 0.00 | 0.00 | 0.00 | 63 | 1023.4 |
| 20260503050053 | 47 | 148 | 6.0 | 13.0 | 0.00 | 0.00 | 0.00 | 63 | 1023.4 |
| 20260503045542 | 47 | 141 | 6.0 | 14.0 | 0.00 | 0.00 | 0.00 | 63 | 1023.3 |
| 20260503045041 | 47 | 130 | 6.0 | 14.0 | 0.00 | 0.00 | 0.00 | 62 | 1023.2 |
| 20260503044553 | 48 | 130 | 7.0 | 14.0 | 0.00 | 0.00 | 0.00 | 62 | 1023.1 |
| 20260503044042 | 48 | 130 | 7.0 | 13.0 | 0.00 | 0.00 | 0.00 | 62 | 1023.2 |
| 20260503043542 | 48 | 134 | 7.0 | 13.0 | 0.00 | 0.00 | 0.00 | 61 | 1023.1 |
| 20260503043053 | 48 | 142 | 7.0 | 14.0 | 0.00 | 0.00 | 0.00 | 61 | 1023.1 |
| 20260503042542 | 48 | 122 | 7.0 | 14.0 | 0.00 | 0.00 | 0.00 | 60 | 1023.1 |
| 20260503042042 | 49 | 158 | 7.0 | 13.0 | 0.00 | 0.00 | 0.00 | 59 | 1023.1 |
| 20260503041553 | 49 | 129 | 7.0 | 13.0 | 0.00 | 0.00 | 0.00 | 58 | 1023.1 |
| 20260503041042 | 49 | 126 | 7.0 | 16.0 | 0.00 | 0.00 | 0.00 | 58 | 1023.1 |
| 20260503040542 | 50 | 134 | 8.0 | 16.0 | 0.00 | 0.00 | 0.00 | 57 | 1023.0 |
| 20260503040049 | 50 | 161 | 8.0 | 15.0 | 0.00 | 0.00 | 0.00 | 55 | 1023.0 |
| 20260503035542 | 50 | 134 | 7.0 | 14.0 | 0.00 | 0.00 | 0.00 | 53 | 1023.0 |
| 20260503035042 | 50 | 142 | 7.0 | 14.0 | 0.00 | 0.00 | 0.00 | 51 | 1023.0 |